^^
Newington CT Miami Avenue Station Historical Data
Daily Summary for April 17, 2018 Units:  Metric    English   Both
Daily Weekly Monthly Yearly Custom
  High: Low: Average:
Temperature: 10.3 °C 3 °C 6.2 °C
Dew Point: 7.7 °C -0.7 °C 1.3 °C
Humidity: 91% 51% 72%
Wind Speed: 12.6km/h 0km/h 1.8km/h
Wind Gust: 27.8km/h - -
Wind- - WSW
Pressure: 1002.3 hPa 996.2 hPa -
Precipitation: 0 mm    
Historical Graphs
 
 
Tabular Data for April 17, 2018
Time Temperature Dew Point Pressure Wind Wind Speed Wind Gust Humidity Rainfall Rate (Hourly) solar
00:03 9.1 °C 7.7 °C 996.2 hPa SW 6.3 km/h 18.5 km/h 91% 0 mm 0.0 W/m2
00:09 9.1 °C 7.7 °C 996.5 hPa SW 5.5 km/h 11.1 km/h 91% 0 mm 0.0 W/m2
00:14 8.9 °C 7.4 °C 996.5 hPa SSW 6.9 km/h 13 km/h 90% 0 mm 0.0 W/m2
00:19 8.8 °C 7.1 °C 996.5 hPa SW 8.4 km/h 13 km/h 89% 0 mm 0.0 W/m2
00:24 8.7 °C 6.7 °C 996.5 hPa West 6 km/h 9.3 km/h 87% 0 mm 0.0 W/m2
00:29 8.6 °C 6.4 °C 996.5 hPa WSW 12.6 km/h 20.4 km/h 86% 0 mm 0.0 W/m2
00:34 8.6 °C 6.2 °C 996.5 hPa SW 5.3 km/h 7.4 km/h 85% 0 mm 0.0 W/m2
00:39 8.5 °C 6.1 °C 996.5 hPa SW 8.2 km/h 20.4 km/h 85% 0 mm 0.0 W/m2
00:44 8.4 °C 6.1 °C 996.8 hPa SW 5.5 km/h 9.3 km/h 85% 0 mm 0.0 W/m2
00:49 8.4 °C 6 °C 996.8 hPa SW 9.2 km/h 16.7 km/h 85% 0 mm 0.0 W/m2
00:54 8.3 °C 5.8 °C 996.8 hPa West 3.5 km/h 5.6 km/h 84% 0 mm 0.0 W/m2
00:59 8.3 °C 5.7 °C 997.2 hPa WSW 9.5 km/h 20.4 km/h 84% 0 mm 0.0 W/m2
01:04 7.9 °C 5.1 °C 997.2 hPa NW 9.2 km/h 18.5 km/h 82% 0 mm 0.0 W/m2
01:09 7.6 °C 4.7 °C 997.2 hPa WSW 5.1 km/h 9.7 km/h 82% 0 mm 0.0 W/m2
01:14 7.1 °C 4.1 °C 997.5 hPa West 3.9 km/h 18.5 km/h 81% 0 mm 0.0 W/m2
01:19 7 °C 3.9 °C 997.5 hPa WNW 1.6 km/h 9.3 km/h 81% 0 mm 0.0 W/m2
01:24 6.8 °C 3.7 °C 997.5 hPa NW 3.9 km/h 5.6 km/h 81% 0 mm 0.0 W/m2
01:29 6.6 °C 3.8 °C 997.5 hPa WNW 5.8 km/h 14.8 km/h 82% 0 mm 0.0 W/m2
01:34 6.5 °C 3.7 °C 997.5 hPa Calm   13 km/h 82% 0 mm 0.0 W/m2
01:39 6.4 °C 3.4 °C 997.5 hPa Calm   9.3 km/h 81% 0 mm 0.0 W/m2
01:44 6.3 °C 3.5 °C 997.9 hPa Calm     82% 0 mm 0.0 W/m2
01:50 6.2 °C 3.2 °C 997.9 hPa WSW 8.9 km/h 9.3 km/h 81% 0 mm 0.0 W/m2
01:55 6.2 °C 3.2 °C 997.9 hPa NW 0.6 km/h 7.4 km/h 81% 0 mm 0.0 W/m2
02:00 6.1 °C 2.9 °C 997.9 hPa WNW 0.2 km/h 16.7 km/h 80% 0 mm 0.0 W/m2
02:05 6.1 °C 2.9 °C 998.2 hPa West 5.1 km/h 13 km/h 80% 0 mm 0.0 W/m2
02:10 6 °C 2.6 °C 998.2 hPa Calm   1.6 km/h 79% 0 mm 0.0 W/m2
02:15 5.9 °C 2.6 °C 998.2 hPa Calm     79% 0 mm 0.0 W/m2
02:20 5.8 °C 2.4 °C 997.9 hPa Calm     79% 0 mm 0.0 W/m2
02:30 5.7 °C 2.4 °C 998.2 hPa Calm     79% 0 mm 0.0 W/m2
02:35 5.7 °C 2.3 °C 998.2 hPa Calm     79% 0 mm 0.0 W/m2
02:40 5.7 °C 2.3 °C 997.9 hPa Calm     79% 0 mm 0.0 W/m2
02:45 5.6 °C 2.3 °C 997.9 hPa Calm     79% 0 mm 0.0 W/m2
02:50 5.6 °C 2 °C 997.9 hPa Calm     78% 0 mm 0.0 W/m2
02:55 5.5 °C 1.9 °C 997.9 hPa Calm     78% 0 mm 0.0 W/m2
03:00 5.5 °C 1.9 °C 997.9 hPa Calm     78% 0 mm 0.0 W/m2
03:05 5.4 °C 1.9 °C 997.9 hPa Calm   1.9 km/h 78% 0 mm 0.0 W/m2
03:10 5.4 °C 1.9 °C 997.9 hPa Calm   1.9 km/h 78% 0 mm 0.0 W/m2
03:15 5.4 °C 1.7 °C 997.9 hPa Calm     77% 0 mm 0.0 W/m2
03:20 5.4 °C 1.7 °C 997.9 hPa Calm     77% 0 mm 0.0 W/m2
03:25 5.3 °C 1.8 °C 997.9 hPa WNW 0.2 km/h 1.6 km/h 78% 0 mm 0.0 W/m2
03:30 5.3 °C 1.8 °C 997.9 hPa Calm     78% 0 mm 0.0 W/m2
03:36 5.3 °C 1.8 °C 998.2 hPa Calm     78% 0 mm 0.0 W/m2
03:41 5.3 °C 1.6 °C 998.2 hPa Calm   1.9 km/h 77% 0 mm 0.0 W/m2
03:46 5.3 °C 1.8 °C 998.2 hPa Calm     78% 0 mm 0.0 W/m2
03:51 5.3 °C 1.8 °C 998.2 hPa Calm     78% 0 mm 0.0 W/m2
03:56 5.3 °C 1.8 °C 998.2 hPa West 0.2 km/h 1.9 km/h 78% 0 mm 0.0 W/m2
04:01 5.3 °C 1.6 °C 998.5 hPa Calm     77% 0 mm 0.0 W/m2
04:06 5.3 °C 1.6 °C 998.5 hPa Calm     77% 0 mm 0.0 W/m2
04:11 5.3 °C 1.6 °C 998.5 hPa Calm     77% 0 mm 0.0 W/m2
04:16 5.3 °C 1.6 °C 998.5 hPa Calm     77% 0 mm 0.0 W/m2
04:21 5.3 °C 1.6 °C 998.5 hPa Calm     77% 0 mm 0.0 W/m2
04:26 5.3 °C 1.6 °C 998.5 hPa Calm     77% 0 mm 0.0 W/m2
04:31 5.3 °C 1.6 °C 998.2 hPa Calm     77% 0 mm 0.0 W/m2
04:36 5.3 °C 1.4 °C 998.2 hPa Calm     76% 0 mm 0.0 W/m2
04:41 5.3 °C 1.4 °C 998.2 hPa Calm   1.9 km/h 76% 0 mm 0.0 W/m2
04:46 5.3 °C 1.4 °C 998.2 hPa Calm     76% 0 mm 0.0 W/m2
04:51 5.3 °C 1.4 °C 998.2 hPa Calm     76% 0 mm 0.0 W/m2
04:56 5.3 °C 1.4 °C 998.2 hPa WSW 0.2 km/h   76% 0 mm 0.0 W/m2
05:01 5.3 °C 1.4 °C 998.2 hPa Calm     76% 0 mm 0.0 W/m2
05:06 5.3 °C 1.4 °C 998.2 hPa Calm     76% 0 mm 0.0 W/m2
05:11 5.3 °C 1.4 °C 998.2 hPa Calm     76% 0 mm 0.0 W/m2
05:16 5.3 °C 1.6 °C 998.2 hPa Calm     77% 0 mm 0.0 W/m2
05:21 5.3 °C 1.6 °C 998.2 hPa Calm     77% 0 mm 0.0 W/m2
05:26 5.2 °C 1.5 °C 998.2 hPa SW 0.2 km/h 1.6 km/h 77% 0 mm 0.0 W/m2
05:32 5.2 °C 1.5 °C 998.2 hPa Calm     77% 0 mm 0.0 W/m2
05:37 5.2 °C 1.7 °C 998.2 hPa Calm     78% 0 mm 0.0 W/m2
05:42 5.2 °C 1.7 °C 998.2 hPa Calm     78% 0 mm 0.0 W/m2
05:47 5.2 °C 1.7 °C 998.2 hPa Calm     78% 0 mm 0.0 W/m2
05:52 5.2 °C 1.7 °C 998.2 hPa Calm     78% 0 mm 0.0 W/m2
05:57 5.2 °C 1.8 °C 998.2 hPa SW 0.5 km/h 3.7 km/h 79% 0 mm 0.0 W/m2
06:02 5.2 °C 1.8 °C 998.2 hPa Calm     79% 0 mm 0.0 W/m2
06:07 5.1 °C 1.8 °C 998.2 hPa Calm     79% 0 mm 0.0 W/m2
06:12 5.1 °C 1.9 °C 998.5 hPa Calm     80% 0 mm 5.0 W/m2
06:17 5 °C 1.8 °C 998.5 hPa Calm     80% 0 mm 7.0 W/m2
06:22 4.9 °C 1.8 °C 998.5 hPa Calm     80% 0 mm 9.0 W/m2
06:27 4.9 °C 1.7 °C 998.5 hPa Calm     80% 0 mm 14.0 W/m2
06:32 4.8 °C 1.7 °C 998.5 hPa Calm     80% 0 mm 19.0 W/m2
06:37 4.8 °C 1.7 °C 998.5 hPa WSW 0.2 km/h 1.6 km/h 80% 0 mm 23.0 W/m2
06:42 4.8 °C 1.7 °C 998.5 hPa Calm     80% 0 mm 26.0 W/m2
06:47 4.8 °C 1.7 °C 998.9 hPa Calm     80% 0 mm 26.0 W/m2
06:52 4.8 °C 1.7 °C 998.9 hPa Calm     80% 0 mm 30.0 W/m2
06:57 4.8 °C 1.7 °C 998.9 hPa Calm   1.9 km/h 80% 0 mm 30.0 W/m2
07:02 4.8 °C 1.7 °C 998.9 hPa Calm     80% 0 mm 30.0 W/m2
07:07 4.8 °C 1.7 °C 998.9 hPa WSW 0.3 km/h   80% 0 mm 39.0 W/m2
07:12 4.8 °C 1.8 °C 998.9 hPa Calm     81% 0 mm 58.0 W/m2
07:17 4.9 °C 1.9 °C 998.9 hPa Calm     81% 0 mm 63.0 W/m2
07:23 4.9 °C 1.7 °C 998.9 hPa West 0.5 km/h   80% 0 mm 62.0 W/m2
07:28 4.9 °C 1.8 °C 998.9 hPa Calm   11.1 km/h 80% 0 mm 63.0 W/m2
07:33 4.9 °C 1.8 °C 998.9 hPa SW 1.3 km/h 11.1 km/h 80% 0 mm 69.0 W/m2
07:38 4.9 °C 1.6 °C 999.2 hPa WSW 10.3 km/h 20.4 km/h 79% 0 mm 81.0 W/m2
07:43 4.9 °C 1.8 °C 999.2 hPa Calm     80% 0 mm 100.0 W/m2
07:48 4.9 °C 1.8 °C 999.2 hPa Calm     80% 0 mm 104.0 W/m2
07:53 5 °C 2 °C 999.2 hPa Calm   1.6 km/h 81% 0 mm 118.0 W/m2
07:58 5 °C 2 °C 999.2 hPa Calm     81% 0 mm 120.0 W/m2
08:03 5.1 °C 2.1 °C 999.2 hPa Calm   1.9 km/h 81% 0 mm 132.0 W/m2
08:08 5.1 °C 2.1 °C 999.2 hPa Calm   1.9 km/h 81% 0 mm 135.0 W/m2
08:13 5.1 °C 2.1 °C 999.2 hPa SSW 0.2 km/h 1.9 km/h 81% 0 mm 142.0 W/m2
08:18 5.1 °C 2.1 °C 999.2 hPa West 0.5 km/h 4.8 km/h 81% 0 mm 162.0 W/m2
08:23 5.2 °C 2.2 °C 999.2 hPa SW 0.5 km/h   81% 0 mm 156.0 W/m2
08:28 5.2 °C 2.2 °C 999.2 hPa WSW 0.2 km/h 11.1 km/h 81% 0 mm 172.0 W/m2
08:33 5.3 °C 2.2 °C 999.2 hPa WSW 0.2 km/h 5.6 km/h 80% 0 mm 227.0 W/m2
08:38 5.4 °C 2.1 °C 999.2 hPa WSW 0.5 km/h 12.9 km/h 79% 0 mm 209.0 W/m2
08:43 5.6 °C 2.3 °C 999.2 hPa SW 0.5 km/h 3.7 km/h 79% 0 mm 227.0 W/m2
08:48 5.8 °C 2.2 °C 999.2 hPa West 2.4 km/h 11.1 km/h 78% 0 mm 174.0 W/m2
08:53 5.8 °C 2.2 °C 999.2 hPa Calm   1.9 km/h 78% 0 mm 179.0 W/m2
08:58 5.8 °C 2.1 °C 999.2 hPa SW 0.6 km/h 17.7 km/h 77% 0 mm 209.0 W/m2
09:03 5.7 °C 2 °C 999.2 hPa WSW 7.6 km/h 7.6 km/h 77% 0 mm 190.0 W/m2
09:08 5.8 °C 2.1 °C 999.2 hPa Calm     77% 0 mm 158.0 W/m2
09:14 5.7 °C 1.8 °C 999.5 hPa SW 3.2 km/h 13 km/h 76% 0 mm 165.0 W/m2
09:19 5.6 °C 1.7 °C 999.5 hPa Calm   14.8 km/h 76% 0 mm 188.0 W/m2
09:24 5.7 °C 1.8 °C 999.5 hPa Calm   9.3 km/h 76% 0 mm 197.0 W/m2
09:29 5.8 °C 1.9 °C 999.5 hPa WSW 0.6 km/h 9.3 km/h 76% 0 mm 232.0 W/m2
09:34 5.9 °C 2.1 °C 999.5 hPa SW 0.5 km/h 6.4 km/h 76% 0 mm 257.0 W/m2
09:39 5.9 °C 1.8 °C 999.5 hPa West 0.6 km/h 14.8 km/h 75% 0 mm 239.0 W/m2
09:44 6 °C 1.9 °C 999.5 hPa Calm     75% 0 mm 218.0 W/m2
09:49 6.1 °C 1.9 °C 999.5 hPa Calm     75% 0 mm 255.0 W/m2
09:54 6.2 °C 1.9 °C 999.5 hPa WSW 2.3 km/h 8 km/h 74% 0 mm 257.0 W/m2
09:59 6.3 °C 2 °C 999.5 hPa SSW 3.9 km/h 13 km/h 74% 0 mm 213.0 W/m2
10:04 6.3 °C 1.6 °C 999.5 hPa SW 0.5 km/h 9.3 km/h 72% 0 mm 225.0 W/m2
10:09 6.3 °C 1.4 °C 999.5 hPa Calm   1.9 km/h 71% 0 mm 218.0 W/m2
10:14 6.4 °C 1.2 °C 999.5 hPa SSW 1.6 km/h 13 km/h 69% 0 mm 225.0 W/m2
10:19 6.3 °C 1.1 °C 999.9 hPa WSW 0.2 km/h 3.7 km/h 69% 0 mm 265.0 W/m2
10:24 6.5 °C 1.4 °C 999.9 hPa West 0.6 km/h 9.7 km/h 70% 0 mm 323.0 W/m2
10:29 6.6 °C 1.3 °C 999.5 hPa Calm   5.6 km/h 69% 0 mm 341.0 W/m2
10:34 6.7 °C 1.4 °C 999.5 hPa WSW 0.5 km/h 1.9 km/h 69% 0 mm 311.0 W/m2
10:39 6.8 °C 1.3 °C 999.5 hPa SW 0.8 km/h 3.7 km/h 68% 0 mm 315.0 W/m2
10:44 6.8 °C 1.9 °C 999.5 hPa SW 0.5 km/h 20.4 km/h 71% 0 mm 311.0 W/m2
10:49 6.6 °C 1.4 °C 999.5 hPa WSW 3.4 km/h 13 km/h 70% 0 mm 411.0 W/m2
10:54 6.7 °C 1.6 °C 999.5 hPa SW 0.6 km/h 9.7 km/h 70% 0 mm 316.0 W/m2
10:59 6.8 °C 1.6 °C 999.5 hPa West 2.7 km/h 16.1 km/h 69% 0 mm 476.0 W/m2
11:05 7.1 °C 1.4 °C 999.5 hPa West 7.4 km/h 14.8 km/h 67% 0 mm 788.0 W/m2
11:10 7.1 °C 1.3 °C 999.5 hPa WNW 2.3 km/h 18.5 km/h 67% 0 mm 339.0 W/m2
11:15 7.2 °C 1.7 °C 999.5 hPa Calm     68% 0 mm 780.0 W/m2
11:20 7.4 °C 1.3 °C 999.5 hPa WSW 0.3 km/h 5.6 km/h 65% 0 mm 287.0 W/m2
11:25 7.5 °C 1.6 °C 999.2 hPa WSW 0.5 km/h 5.6 km/h 66% 0 mm 425.0 W/m2
11:30 7.6 °C 1.4 °C 999.5 hPa WSW 4.3 km/h 14.8 km/h 65% 0 mm 165.0 W/m2
11:35 7.2 °C 1.7 °C 999.2 hPa WSW 4.2 km/h 16.7 km/h 68% 0 mm 243.0 W/m2
11:40 6.8 °C 1.7 °C 999.2 hPa WSW 1.1 km/h 4.8 km/h 70% 0 mm 278.0 W/m2
11:45 6.8 °C 1.6 °C 999.2 hPa West 1.3 km/h 14.8 km/h 69% 0 mm 452.0 W/m2
11:50 7.1 °C 1.3 °C 999.2 hPa Calm   5.6 km/h 67% 0 mm 840.0 W/m2
11:55 7.1 °C 1.1 °C 998.9 hPa West 1.6 km/h 11.1 km/h 66% 0 mm 320.0 W/m2
12:00 7.5 °C 2.2 °C 998.9 hPa Calm     69% 0 mm 916.0 W/m2
12:05 7.9 °C 2.2 °C 998.9 hPa Calm     67% 0 mm 835.0 W/m2
12:10 8.3 °C 2.3 °C 998.9 hPa South 0.2 km/h 3.7 km/h 66% 0 mm 192.0 W/m2
12:15 8.2 °C 1.1 °C 998.9 hPa WSW 0.3 km/h 5.6 km/h 61% 0 mm 383.0 W/m2
12:20 8.1 °C 1.4 °C 998.9 hPa SSW 8 km/h 18.5 km/h 63% 0 mm 288.0 W/m2
12:25 7.8 °C 1.7 °C 998.9 hPa SW 2.9 km/h 9.3 km/h 65% 0 mm 388.0 W/m2
12:30 8.2 °C 2 °C 998.5 hPa WSW 6.4 km/h 18.5 km/h 65% 0 mm 450.0 W/m2
12:35 8.2 °C 1.6 °C 998.9 hPa WSW 9.3 km/h 16.7 km/h 63% 0 mm 387.0 W/m2
12:40 7.8 °C 0.8 °C 998.5 hPa SW 0.2 km/h 14.8 km/h 61% 0 mm 383.0 W/m2
12:45 7.9 °C 0.9 °C 998.5 hPa West 0.5 km/h   61% 0 mm 279.0 W/m2
12:51 8.1 °C 1.1 °C 998.5 hPa Calm     61% 0 mm 207.0 W/m2
12:56 8.2 °C 0.8 °C 998.5 hPa Calm   1.9 km/h 60% 0 mm 183.0 W/m2
13:01 8.1 °C 1 °C 998.5 hPa Calm   14.8 km/h 61% 0 mm 330.0 W/m2
13:06 8.2 °C 1.1 °C 998.5 hPa Calm   13 km/h 61% 0 mm 364.0 W/m2
13:11 8.4 °C 1.3 °C 998.5 hPa West 5.5 km/h 16.7 km/h 61% 0 mm 394.0 W/m2
13:16 8.4 °C 1.1 °C 998.2 hPa Calm     60% 0 mm 401.0 W/m2
13:21 8.8 °C 1 °C 998.2 hPa SW 0.6 km/h 5.6 km/h 58% 0 mm 1032.0 W/m2
13:26 9.1 °C 0.5 °C 998.2 hPa West 3.7 km/h 14.5 km/h 55% 0 mm 404.0 W/m2
13:31 9 °C 0.2 °C 998.2 hPa SW 6.8 km/h 16.1 km/h 54% 0 mm 227.0 W/m2
13:36 8.8 °C 0 °C 998.2 hPa SSW 2.7 km/h 9.3 km/h 54% 0 mm 287.0 W/m2
13:41 8.8 °C -0.3 °C 997.9 hPa West 7.2 km/h 13 km/h 53% 0 mm 397.0 W/m2
13:46 8.9 °C 0.3 °C 997.9 hPa WSW 3.7 km/h 20.9 km/h 55% 0 mm 404.0 W/m2
13:51 9.1 °C -0.1 °C 997.9 hPa SSW 5 km/h 18.5 km/h 53% 0 mm 345.0 W/m2
13:56 9 °C 0.2 °C 997.9 hPa WSW 0.8 km/h   54% 0 mm 239.0 W/m2
14:01 9.1 °C 0.2 °C 997.9 hPa WSW 0.3 km/h 4.8 km/h 54% 0 mm 199.0 W/m2
14:06 8.9 °C -0.1 °C 997.9 hPa West 8.5 km/h 22.2 km/h 53% 0 mm 195.0 W/m2
14:11 8.9 °C -0.2 °C 997.9 hPa West 4 km/h 11.1 km/h 53% 0 mm 257.0 W/m2
14:16 8.8 °C -0.2 °C 997.9 hPa SW 1.1 km/h 9.3 km/h 53% 0 mm 244.0 W/m2
14:21 9 °C -0.1 °C 997.9 hPa Calm   22.2 km/h 53% 0 mm 316.0 W/m2
14:26 9.2 °C 0.1 °C 997.9 hPa SSW 4.5 km/h 20.4 km/h 53% 0 mm 295.0 W/m2
14:31 9.3 °C 0.4 °C 997.9 hPa SW 2.6 km/h 13 km/h 54% 0 mm 439.0 W/m2
14:36 9.3 °C 0.5 °C 997.9 hPa WSW 0.5 km/h 5.6 km/h 54% 0 mm 431.0 W/m2
14:41 9.6 °C 0.5 °C 997.5 hPa West 9.2 km/h 18.5 km/h 53% 0 mm 475.0 W/m2
14:47 9.7 °C 0.3 °C 997.5 hPa SW 3.1 km/h 16.7 km/h 52% 0 mm 601.0 W/m2
14:52 10.2 °C 0.7 °C 997.5 hPa Calm     52% 0 mm 506.0 W/m2
14:57 10.3 °C 0.6 °C 997.5 hPa WSW 10 km/h 22.2 km/h 51% 0 mm 218.0 W/m2
15:02 9.8 °C 0.1 °C 997.5 hPa NW 7.7 km/h 18.5 km/h 51% 0 mm 232.0 W/m2
15:07 9.4 °C -0.2 °C 997.5 hPa WNW 3.5 km/h 12.9 km/h 51% 0 mm 301.0 W/m2
15:12 9.2 °C -0.4 °C 997.5 hPa SW 7.9 km/h 18.5 km/h 51% 0 mm 346.0 W/m2
15:17 9.2 °C -0.2 °C 997.5 hPa West 0.8 km/h 11.1 km/h 52% 0 mm 355.0 W/m2
15:22 9.4 °C 0.8 °C 997.5 hPa Calm   1.9 km/h 55% 0 mm 355.0 W/m2
15:27 9.5 °C -0.2 °C 997.5 hPa WNW 6 km/h 16.7 km/h 51% 0 mm 341.0 W/m2
15:32 9.4 °C 0.3 °C 997.9 hPa WSW 5.3 km/h 13 km/h 53% 0 mm 464.0 W/m2
15:37 9.5 °C 0.4 °C 997.5 hPa WSW 1.1 km/h 18.5 km/h 53% 0 mm 383.0 W/m2
15:42 9.6 °C 0.7 °C 997.9 hPa West 4.7 km/h 11.3 km/h 54% 0 mm 339.0 W/m2
15:47 9.2 °C 0.1 °C 997.9 hPa WSW 6.6 km/h 18.5 km/h 53% 0 mm 322.0 W/m2
15:52 9 °C -0.1 °C 997.9 hPa WSW 8 km/h 18.5 km/h 53% 0 mm 214.0 W/m2
15:57 8.8 °C -0.1 °C 997.9 hPa South 3.1 km/h 5.6 km/h 54% 0 mm 142.0 W/m2
16:02 8.5 °C -0.6 °C 998.2 hPa ESE 9.3 km/h 25.9 km/h 53% 0 mm 90.0 W/m2
16:07 8.2 °C -0.3 °C 998.2 hPa WSW 3.1 km/h 11.1 km/h 55% 0 mm 77.0 W/m2
16:12 8.1 °C -0.4 °C 998.2 hPa SW 10.5 km/h 25.7 km/h 55% 0 mm 69.0 W/m2
16:17 7.8 °C -0.7 °C 998.2 hPa SW 6.8 km/h 24.1 km/h 55% 0 mm 53.0 W/m2
16:22 7.7 °C -0.3 °C 998.2 hPa Calm   3.7 km/h 57% 0 mm 60.0 W/m2
16:28 7.7 °C -0.3 °C 998.2 hPa SSW 6.3 km/h 14.8 km/h 57% 0 mm 84.0 W/m2
16:33 7.6 °C -0.4 °C 998.2 hPa West 5.1 km/h 13 km/h 57% 0 mm 91.0 W/m2
16:38 7.6 °C -0.7 °C 998.5 hPa WSW 2.1 km/h 14.8 km/h 56% 0 mm 90.0 W/m2
16:43 7.6 °C -0.4 °C 998.2 hPa SW 4.8 km/h 13 km/h 57% 0 mm 114.0 W/m2
16:48 7.6 °C -0.4 °C 998.5 hPa WSW 8.2 km/h 27.8 km/h 57% 0 mm 95.0 W/m2
16:53 7.6 °C -0.1 °C 998.5 hPa WNW 1.9 km/h 12.9 km/h 58% 0 mm 95.0 W/m2
16:58 7.7 °C -0.1 °C 998.5 hPa WNW 0.6 km/h 6.4 km/h 58% 0 mm 86.0 W/m2
17:03 7.6 °C -0.4 °C 998.5 hPa WSW 8.4 km/h 27.8 km/h 57% 0 mm 81.0 W/m2
17:08 7.4 °C -0.3 °C 998.5 hPa West 3.5 km/h 14.8 km/h 58% 0 mm 90.0 W/m2
17:13 7.3 °C -0.2 °C 998.5 hPa SW 8 km/h 20.4 km/h 59% 0 mm 81.0 W/m2
17:18 7.2 °C -0.1 °C 998.5 hPa WNW 1.1 km/h 14.8 km/h 60% 0 mm 58.0 W/m2
17:23 6.8 °C 0.1 °C 998.5 hPa WNW 2.3 km/h 18.5 km/h 62% 0 mm 40.0 W/m2
17:28 6.7 °C -0.1 °C 998.9 hPa WNW 2.1 km/h 13 km/h 62% 0 mm 44.0 W/m2
17:33 6.7 °C 0.3 °C 998.9 hPa Calm     64% 0 mm 35.0 W/m2
17:38 6.6 °C 0.2 °C 998.9 hPa West 0.5 km/h 14.8 km/h 64% 0 mm 33.0 W/m2
17:43 6.4 °C 0.5 °C 999.2 hPa NW 1 km/h 12.9 km/h 66% 0 mm 33.0 W/m2
17:48 6.2 °C 0.7 °C 999.2 hPa WNW 1.1 km/h 7.4 km/h 68% 0 mm 30.0 W/m2
17:53 5.9 °C 0.8 °C 999.2 hPa Calm     70% 0 mm 32.0 W/m2
17:58 5.8 °C 0.8 °C 999.2 hPa WSW 1.8 km/h 4.8 km/h 70% 0 mm 33.0 W/m2
18:03 5.8 °C 0.7 °C 999.2 hPa WSW 1.8 km/h   70% 0 mm 40.0 W/m2
18:08 5.8 °C 0.9 °C 999.2 hPa Calm   5.6 km/h 71% 0 mm 42.0 W/m2
18:14 5.7 °C 1 °C 999.2 hPa Calm   3.7 km/h 72% 0 mm 33.0 W/m2
18:19 5.6 °C 1.2 °C 999.2 hPa Calm     73% 0 mm 28.0 W/m2
18:24 5.6 °C 1.2 °C 999.5 hPa Calm     73% 0 mm 35.0 W/m2
18:29 5.6 °C 1.1 °C 999.5 hPa WSW 1.9 km/h 8 km/h 73% 0 mm 37.0 W/m2
18:34 5.5 °C 1.1 °C 999.5 hPa Calm     73% 0 mm 33.0 W/m2
18:39 5.5 °C 0.8 °C 999.5 hPa Calm   1.9 km/h 72% 0 mm 32.0 W/m2
18:44 5.4 °C 0.8 °C 999.5 hPa Calm     72% 0 mm 28.0 W/m2
18:49 5.5 °C 0.8 °C 999.9 hPa Calm   5.6 km/h 72% 0 mm 25.0 W/m2
18:54 5.6 °C 0.9 °C 999.9 hPa Calm     72% 0 mm 21.0 W/m2
18:59 5.6 °C 0.7 °C 999.9 hPa Calm     71% 0 mm 23.0 W/m2
19:04 5.5 °C 0.4 °C 999.9 hPa Calm     70% 0 mm 23.0 W/m2
19:09 5.5 °C 0.3 °C 999.9 hPa WSW 0.2 km/h 3.7 km/h 69% 0 mm 18.0 W/m2
19:14 5.5 °C -0.2 °C 999.9 hPa Calm     67% 0 mm 12.0 W/m2
19:19 5.4 °C -0.2 °C 999.9 hPa West 0.8 km/h 11.3 km/h 67% 0 mm 7.0 W/m2
19:24 5.4 °C -0.4 °C 1000.2 hPa Calm     66% 0 mm 5.0 W/m2
19:29 5.4 °C -0.3 °C 1000.2 hPa Calm     67% 0 mm 0.0 W/m2
19:34 5.3 °C -0.3 °C 1000.2 hPa Calm   5.6 km/h 67% 0 mm 0.0 W/m2
19:39 5.3 °C 0.1 °C 1000.2 hPa Calm   5.6 km/h 69% 0 mm 0.0 W/m2
19:44 5.2 °C 0.2 °C 1000.6 hPa Calm   5.6 km/h 70% 0 mm 0.0 W/m2
19:49 5.1 °C 0.3 °C 1000.6 hPa WSW 1 km/h 18.5 km/h 71% 0 mm 0.0 W/m2
19:54 4.8 °C 0.4 °C 1000.6 hPa WSW 1.8 km/h 11.1 km/h 73% 0 mm 0.0 W/m2
19:59 4.7 °C 0.2 °C 1000.9 hPa West 2.3 km/h 5.6 km/h 73% 0 mm 0.0 W/m2
20:04 4.6 °C 0.3 °C 1000.9 hPa WSW 0.2 km/h 3.7 km/h 74% 0 mm 0.0 W/m2
20:10 4.5 °C 0.4 °C 1000.9 hPa West 2.1 km/h 3.7 km/h 75% 0 mm 0.0 W/m2
20:15 4.4 °C 0.4 °C 1000.9 hPa Calm   16.7 km/h 75% 0 mm 0.0 W/m2
20:20 4.4 °C 0.3 °C 1000.9 hPa Calm   1.9 km/h 75% 0 mm 0.0 W/m2
20:25 4.4 °C 0.3 °C 1000.9 hPa Calm     75% 0 mm 0.0 W/m2
20:30 4.3 °C 0.3 °C 1000.9 hPa West 0.3 km/h 4.8 km/h 75% 0 mm 0.0 W/m2
20:35 4.3 °C 0.2 °C 1001.2 hPa West 0.2 km/h 11.3 km/h 75% 0 mm 0.0 W/m2
20:40 4.3 °C 0.2 °C 1001.2 hPa Calm     75% 0 mm 0.0 W/m2
20:45 4.3 °C 0.2 °C 1001.2 hPa West 0.2 km/h 1.9 km/h 75% 0 mm 0.0 W/m2
20:50 4.2 °C 0.2 °C 1001.2 hPa Calm   1.9 km/h 75% 0 mm 0.0 W/m2
20:55 4.2 °C 0.2 °C 1001.2 hPa Calm     75% 0 mm 0.0 W/m2
21:00 4.2 °C 0.2 °C 1001.2 hPa Calm     75% 0 mm 0.0 W/m2
21:05 4.2 °C 0.2 °C 1001.2 hPa Calm   1.9 km/h 75% 0 mm 0.0 W/m2
21:10 4.2 °C 0.1 °C 1001.2 hPa Calm     75% 0 mm 0.0 W/m2
21:15 4.2 °C 0.1 °C 1001.6 hPa Calm     75% 0 mm 0.0 W/m2
21:20 4.2 °C 0.1 °C 1001.2 hPa Calm     75% 0 mm 0.0 W/m2
21:25 4.1 °C 0.1 °C 1001.2 hPa Calm     75% 0 mm 0.0 W/m2
21:30 4.2 °C 0.1 °C 1001.6 hPa Calm     75% 0 mm 0.0 W/m2
21:35 4.2 °C 0.1 °C 1001.6 hPa Calm     75% 0 mm 0.0 W/m2
21:40 4.1 °C 0.1 °C 1001.6 hPa Calm     75% 0 mm 0.0 W/m2
21:45 4.1 °C 0.1 °C 1001.6 hPa Calm     75% 0 mm 0.0 W/m2
21:50 4.2 °C 0.1 °C 1001.6 hPa WSW 0.2 km/h 3.7 km/h 75% 0 mm 0.0 W/m2
21:56 4.2 °C -0.1 °C 1001.6 hPa Calm     74% 0 mm 0.0 W/m2
22:01 4.2 °C -0.1 °C 1001.6 hPa Calm     74% 0 mm 0.0 W/m2
22:06 3.9 °C 0.1 °C 1001.6 hPa WSW 1.4 km/h 8 km/h 76% 0 mm 0.0 W/m2
22:11 3.8 °C 0.1 °C 1001.6 hPa WSW 0.6 km/h 5.6 km/h 77% 0 mm 0.0 W/m2
22:16 3.7 °C 0 °C 1001.6 hPa South 3.4 km/h 16.7 km/h 77% 0 mm 0.0 W/m2
22:21 3.6 °C 0.1 °C 1001.6 hPa Calm   1.9 km/h 78% 0 mm 0.0 W/m2
22:26 3.5 °C 0.2 °C 1001.6 hPa WSW 1.4 km/h 9.3 km/h 79% 0 mm 0.0 W/m2
22:31 3.4 °C 0.2 °C 1001.6 hPa Calm     79% 0 mm 0.0 W/m2
22:36 3.4 °C 0.2 °C 1001.6 hPa SSW 0.2 km/h 13 km/h 79% 0 mm 0.0 W/m2
22:41 3.4 °C 0.1 °C 1001.6 hPa Calm     79% 0 mm 0.0 W/m2
22:46 3.3 °C 0.1 °C 1001.6 hPa Calm   7.4 km/h 79% 0 mm 0.0 W/m2
22:51 3.3 °C 0.1 °C 1001.9 hPa WNW 4.7 km/h 14.8 km/h 79% 0 mm 0.0 W/m2
22:56 3.3 °C 0 °C 1001.6 hPa Calm   7.4 km/h 79% 0 mm 0.0 W/m2
23:01 3.2 °C -0.1 °C 1001.6 hPa Calm   9.3 km/h 79% 0 mm 0.0 W/m2
23:06 3.2 °C 0.1 °C 1001.9 hPa WSW 0.2 km/h 1.9 km/h 80% 0 mm 0.0 W/m2
23:11 3.1 °C -0.2 °C 1001.9 hPa Calm   7.4 km/h 79% 0 mm 0.0 W/m2
23:16 3.1 °C -0.2 °C 1001.9 hPa SW 2.7 km/h 9.3 km/h 79% 0 mm 0.0 W/m2
23:21 3.1 °C -0.1 °C 1001.9 hPa Calm     80% 0 mm 0.0 W/m2
23:26 3 °C -0.1 °C 1001.9 hPa Calm     80% 0 mm 0.0 W/m2
23:31 3 °C -0.1 °C 1001.9 hPa West 5.5 km/h 13 km/h 80% 0 mm 0.0 W/m2
23:36 3 °C -0.1 °C 1002.3 hPa WSW 0.2 km/h   80% 0 mm 0.0 W/m2
23:41 3 °C -0.1 °C 1002.3 hPa Calm     80% 0 mm 0.0 W/m2
23:47 3 °C -0.1 °C 1002.3 hPa WSW 1.4 km/h   80% 0 mm 0.0 W/m2
23:52 3 °C -0.1 °C 1002.3 hPa Calm     80% 0 mm 0.0 W/m2
23:57 3 °C -0.1 °C 1002.3 hPa West 2.4 km/h 11.1 km/h 80% 0 mm 0.0 W/m2
Miami Avenue Weather - Newington CT
Compliments of Weather Underground - 3 mb